Theta_e
303 308 310 310 310 311 308 311 305 310 309 313 313 312 318 331 328 326 326 326 327 325 325 326 327 329 330 330 329 330 329 328 327 328 328 328 327 327 328 328 329 329 330 331
303 306 310 308 312 312 312 313 309 308 306 311 318 327 329 328 327 326 327 328 328 327 326 326 325 327 328 325 325 326 325 324 324 323 322 321 322 322 323 323 324 325 326 327
296 304 306 302 306 310 311 312 311 306 313 324 324 327 329 328 327 327 328 330 328 328 328 327 327 327 324 322 323 322 321 321 320 320 319 318 319 319 318 318 319 319 321 323
295 297 293 304 311 313 311 312 312 310 311 319 324 329 331 330 329 329 331 327 328 328 327 327 326 323 321 321 320 319 318 319 318 317 317 317 316 315 316 317 317 317 318 322
295 291 297 303 308 308 308 307 312 310 317 325 326 327 324 330 331 329 327 328 328 327 326 324 321 320 320 318 317 317 317 317 317 316 315 313 312 312 313 314 315 316 319 321
291 290 292 300 307 311 312 301 314 320 322 324 326 317 320 327 326 325 326 325 324 324 323 321 318 318 317 315 316 316 317 317 317 315 313 312 312 313 313 313 314 316 319 325
292 291 295 301 307 311 301 304 322 327 325 325 320 320 324 324 324 325 325 325 324 323 321 317 317 317 315 315 315 317 316 315 314 315 314 314 315 314 313 313 314 317 317 321
289 289 290 307 311 303 307 318 326 327 323 321 323 324 322 322 322 323 323 323 323 319 317 317 317 316 314 314 316 315 314 313 312 316 314 314 312 310 311 312 314 312 313 314
295 294 300 305 308 313 316 319 323 322 322 325 323 320 321 320 322 323 322 322 321 318 317 316 316 316 314 315 314 312 312 311 311 313 313 311 309 309 308 309 312 311 310 309
300 302 307 311 316 321 321 320 323 323 324 325 320 320 320 321 321 321 322 321 321 318 316 314 314 316 317 316 314 311 309 309 310 312 312 310 309 309 309 306 308 309 308 309
300 305 310 315 319 321 322 322 323 324 324 322 320 319 321 320 321 322 321 320 319 317 315 313 314 315 317 317 312 309 309 309 309 309 309 309 308 307 307 307 305 308 306 306
302 306 306 310 317 324 322 321 322 322 321 322 321 319 320 320 321 321 319 318 317 316 315 314 314 314 315 316 312 310 309 308 308 307 307 307 306 307 307 306 304 301 299 303
306 306 307 314 319 324 323 322 324 323 323 321 321 321 320 319 320 318 319 318 317 317 316 315 314 315 316 316 312 309 309 308 308 306 307 306 307 306 306 308 304 303 301 301
308 313 314 318 316 320 324 324 323 324 323 322 322 322 321 319 318 319 319 320 319 318 317 316 315 316 317 316 314 310 309 306 308 307 307 307 307 307 307 306 306 308 306 302
310 309 311 315 318 320 323 324 322 321 321 321 323 322 321 319 319 320 320 320 320 318 318 317 316 317 317 317 315 312 309 309 308 308 308 307 307 307 307 307 306 307 308 306
312 313 314 314 315 319 321 321 320 319 321 321 321 321 322 322 322 321 320 320 318 317 318 318 317 319 317 318 316 314 312 311 309 309 308 308 307 307 307 308 308 308 308 309
311 310 312 312 313 315 317 319 321 320 320 321 321 320 320 320 320 320 319 320 321 321 321 320 319 320 318 318 318 315 313 313 312 310 308 308 308 308 308 307 308 308 310 310
311 312 312 313 314 315 316 317 317 317 318 319 319 320 319 317 317 315 317 318 320 320 321 321 323 322 320 320 318 317 315 314 314 312 312 310 310 310 309 308 308 309 311 312
317 317 317 317 316 316 316 315 315 316 317 318 317 316 316 315 315 315 314 314 317 318 320 322 322 323 321 322 320 319 317 316 315 315 313 310 311 311 311 310 311 312 312 313
316 316 317 316 317 316 315 316 317 316 317 317 317 316 316 315 315 315 314 314 316 319 322 322 323 322 321 321 323 320 321 320 318 317 316 315 314 314 314 308 312 314 315 314
314 315 314 314 314 314 314 315 316 316 317 319 317 315 315 315 315 315 315 314 319 319 321 321 323 322 322 321 322 321 321 321 320 319 318 317 316 315 314 313 313 313 314 315
313 313 312 312 312 312 313 314 314 315 315 315 316 317 316 314 314 314 316 316 320 314 319 321 321 320 321 320 322 321 321 321 319 318 315 315 314 313 312 313 313 313 315 315
311 311 311 310 310 310 311 311 311 312 313 314 315 314 314 315 316 314 315 319 318 315 318 320 318 317 316 321 321 321 321 320 318 315 313 314 313 313 313 314 315 315 317 317
309 310 310 310 309 309 308 309 310 312 312 313 314 316 315 315 315 315 317 312 308 310 318 319 318 313 314 320 320 321 320 318 316 316 315 306 313 314 314 315 316 317 318 315
310 310 310 310 308 308 308 309 310 311 312 313 314 315 316 317 317 318 318 318 310 313 319 312 311 311 319 320 317 316 316 315 313 313 313 314 314 314 315 316 316 317 318 318
310 310 310 310 309 309 310 310 309 310 310 311 313 315 316 316 317 317 318 314 318 313 317 317 317 317 318 317 317 315 313 313 314 313 312 314 315 315 316 316 316 317 317 317
311 307 311 312 311 312 311 310 309 309 309 311 314 314 312 315 314 315 312 318 317 317 318 319 319 316 317 317 317 316 314 315 309 314 315 315 316 315 315 316 316 316 316 316
Wind_Speed
7 10 9 9 11 15 12 15 11 19 17 19 8 7 8 11 11 13 10 14 13 13 14 13 12 9 8 11 13 8 8 6 6 4 5 5 5 5 5 5 6 6 7 7
15 9 12 8 15 16 20 15 9 12 11 8 1 7 9 15 17 16 15 14 15 16 18 17 17 10 6 16 9 10 6 5 3 5 6 6 6 7 7 8 8 8 8 8
8 6 7 5 9 11 8 10 12 12 21 5 5 9 15 17 18 20 18 15 11 10 10 9 7 9 17 10 7 10 4 3 5 5 7 6 5 5 7 8 9 10 10 10
2 4 4 9 8 13 12 7 13 6 4 7 6 4 7 7 16 17 13 8 6 6 9 4 12 14 9 10 9 8 5 2 4 6 5 5 7 9 10 10 10 11 11 10
5 2 6 3 7 10 10 10 10 9 3 5 10 8 4 3 6 9 10 7 7 7 6 7 12 12 12 10 9 6 4 5 4 4 8 10 13 11 11 10 10 10 10 11
4 4 9 9 4 8 7 9 8 10 7 13 10 6 5 8 17 15 12 8 10 9 9 10 6 9 13 9 6 5 4 2 4 9 11 11 9 10 9 8 8 8 10 9
2 3 7 8 4 3 8 11 7 9 10 8 2 2 14 15 16 18 13 12 10 7 7 8 8 10 10 6 6 4 3 6 8 7 8 8 6 7 9 8 7 7 9 8
3 3 6 5 5 8 7 1 6 5 7 8 10 13 15 16 17 17 16 12 10 9 7 5 8 9 7 6 4 4 4 6 6 5 5 5 5 7 8 8 9 10 10 9
10 9 5 5 4 2 4 6 6 8 7 12 15 14 15 15 16 15 14 11 8 10 9 5 5 6 7 5 5 5 5 6 4 4 5 6 6 8 6 8 6 8 9 10
2 4 6 5 3 3 3 3 8 7 13 14 17 15 15 14 14 14 12 12 9 11 8 6 5 6 6 7 6 6 6 5 4 3 5 5 4 3 4 5 5 6 7 8
4 6 3 2 2 6 9 9 12 8 8 17 17 15 17 15 14 13 11 9 10 11 10 10 8 7 6 6 6 6 5 4 4 3 3 1 1 2 3 2 2 3 3 3
7 6 4 2 2 2 9 8 10 16 9 7 14 17 14 12 10 11 11 9 9 8 8 8 7 7 6 6 6 6 5 3 2 1 0 1 2 3 4 3 4 3 3 1
4 3 1 4 5 4 5 7 5 7 10 13 7 12 15 11 9 9 9 10 9 10 8 8 7 6 6 7 6 5 5 4 3 2 1 1 2 2 4 5 6 6 7 9
5 7 6 2 4 6 8 7 9 8 7 6 9 8 10 10 7 10 11 11 9 9 8 8 8 8 7 7 7 6 5 6 3 3 3 2 1 0 0 2 4 4 6 4
8 6 4 6 3 5 7 10 9 8 6 7 6 8 11 11 11 11 8 8 8 8 8 8 8 8 7 8 8 7 5 5 4 3 2 2 2 2 1 1 2 3 4 5
6 9 8 7 7 5 6 6 6 7 8 5 8 9 8 7 6 5 6 8 9 9 10 9 10 9 8 9 9 6 6 7 7 4 3 3 3 3 3 3 3 3 4 4
11 1 5 5 3 4 5 1 6 9 7 9 8 7 8 7 6 5 5 7 7 6 9 11 13 8 9 9 9 6 5 5 8 5 5 5 4 4 4 4 5 5 6 6
6 6 5 6 6 5 3 3 5 6 5 7 10 10 9 9 8 6 6 6 4 3 6 9 6 7 8 9 9 7 6 6 6 6 5 5 6 5 5 5 5 6 7 6
6 9 8 8 6 6 5 5 5 6 6 7 9 7 5 6 4 3 5 5 5 5 6 6 11 11 9 7 7 5 5 5 5 4 5 5 5 5 5 5 6 6 6 6
11 10 10 9 7 6 7 5 6 7 6 6 6 6 4 2 3 4 4 5 6 5 4 6 7 8 9 11 12 6 6 6 5 5 5 5 6 6 4 6 6 7 6 5
11 10 10 10 8 7 6 5 6 5 4 4 3 3 4 4 5 4 3 3 4 4 6 5 4 4 4 7 10 7 7 7 6 6 4 5 5 5 5 5 5 5 5 5
7 9 8 7 7 7 6 6 6 5 4 2 1 2 3 5 5 5 5 6 1 6 3 3 4 6 5 12 7 8 8 8 5 4 4 5 5 4 5 4 5 5 5 5
6 6 6 6 6 5 4 5 4 3 2 2 3 3 1 2 2 3 4 5 4 5 3 3 4 6 8 6 6 7 8 7 6 5 4 5 5 5 5 5 5 4 4 5
5 5 5 5 5 4 5 2 3 3 1 2 3 2 1 2 2 3 3 2 3 3 3 3 4 7 9 5 5 5 5 4 5 6 5 5 3 3 4 5 5 5 5 5
5 4 4 4 4 3 3 2 3 2 1 2 3 3 3 3 3 1 1 2 1 1 2 4 7 9 6 5 5 5 5 4 3 3 3 3 5 5 5 5 6 6 6 6
4 3 3 4 3 3 3 2 2 1 0 1 2 2 2 2 2 2 1 1 2 2 1 2 4 5 5 5 4 5 2 4 4 4 5 4 4 5 5 5 6 6 5 6
4 4 3 2 1 2 3 3 2 1 1 1 0 2 2 2 1 1 2 3 2 2 2 3 4 4 3 3 3 3 3 3 6 5 3 3 4 5 5 5 5 5 4 4
Wind_Direction
193 181 170 182 190 187 198 207 196 243 239 246 248 256 180 139 122 119 122 130 130 130 117 111 94 88 98 96 94 24 43 53 51 54 60 47 29 8 339 333 326 317 306 295
198 178 177 197 210 194 206 219 244 259 258 222 155 113 147 149 145 143 156 157 152 152 135 129 124 125 86 75 79 75 33 27 5 44 43 33 15 1 354 345 328 311 296 284
218 171 125 257 195 185 199 205 205 225 245 138 173 196 176 158 160 158 166 164 164 129 108 103 108 77 98 81 71 91 85 15 26 33 37 22 6 4 355 338 334 325 317 313
126 90 172 236 186 178 193 215 212 252 215 184 203 148 136 160 159 156 151 152 135 117 125 115 111 88 93 94 94 85 82 61 38 38 28 14 18 12 2 350 336 327 319 304
133 229 272 230 198 154 168 245 196 217 180 134 120 88 34 115 125 127 110 99 93 79 46 99 81 84 99 84 75 85 76 53 37 34 39 28 17 6 357 339 331 324 311 306
139 173 209 232 234 135 105 267 178 171 171 154 144 147 201 138 116 108 114 113 105 109 107 90 106 104 88 93 105 86 71 59 49 47 41 26 11 4 350 337 313 316 311 326
140 193 284 246 253 126 155 256 168 155 137 169 150 274 134 129 124 124 123 123 120 105 128 128 111 102 101 108 97 106 82 55 57 50 47 30 10 9 8 356 337 341 344 344
95 127 259 182 66 159 227 94 120 120 134 122 118 115 123 124 125 125 129 131 134 129 115 101 93 93 101 107 117 116 99 81 73 66 62 25 356 3 9 355 6 11 1 1
176 210 240 256 225 306 174 152 167 134 131 133 132 130 131 131 132 133 134 135 132 126 121 106 119 122 130 154 157 141 113 98 98 67 57 36 30 23 13 2 12 13 13 7
43 276 261 255 203 154 124 124 124 120 134 139 133 134 128 132 137 140 145 151 149 136 130 132 146 163 158 158 154 126 113 111 102 88 67 39 31 11 25 4 8 14 8 5
258 273 301 337 123 133 102 98 98 98 125 134 131 136 140 145 150 153 150 145 149 150 157 159 160 157 157 144 127 115 112 100 85 65 45 22 337 9 37 35 3 354 17 340
212 211 202 246 98 90 112 118 127 120 105 119 143 144 144 146 148 148 146 145 152 153 140 148 150 141 139 146 136 121 108 113 124 134 53 355 1 2 296 299 313 4 255 43
187 159 202 96 68 52 92 128 112 113 139 136 127 145 144 144 154 145 145 144 156 160 153 148 148 156 162 153 143 148 143 154 162 163 129 72 33 32 5 327 321 325 338 342
97 117 55 353 155 106 100 86 80 76 82 114 136 131 138 135 123 148 162 171 152 152 157 159 168 184 175 160 158 164 169 159 165 189 192 172 193 208 44 358 353 333 321 327
46 53 98 100 82 107 123 129 123 124 126 119 133 147 138 145 159 178 164 152 148 154 164 166 183 201 172 169 172 182 178 181 192 204 211 207 217 248 275 310 304 303 314 330
37 81 57 72 101 93 89 92 124 135 140 146 149 144 148 153 160 156 148 145 150 184 187 182 201 212 177 180 186 192 197 188 185 201 224 225 228 246 270 271 288 295 301 293
115 88 108 103 146 155 181 170 183 173 157 157 151 134 130 146 159 167 154 175 195 188 188 186 209 187 187 187 188 194 178 190 198 201 223 224 236 236 252 267 277 287 283 277
115 113 111 136 162 157 128 101 119 138 163 139 137 144 160 175 178 152 171 161 167 199 185 204 203 188 203 195 191 187 188 193 191 215 223 228 240 240 246 257 270 278 283 286
89 108 98 93 102 107 101 103 108 108 118 140 147 151 106 92 107 165 156 165 185 211 248 202 208 194 206 209 185 177 187 187 193 222 236 239 255 252 249 249 260 264 274 290
95 89 91 90 85 93 96 97 103 92 81 85 81 68 51 52 156 166 155 197 207 202 194 211 195 200 197 191 185 196 179 173 182 218 223 238 245 259 255 253 260 274 285 293
104 99 94 95 87 73 75 89 94 81 64 98 147 212 212 209 194 192 204 234 248 214 221 210 210 204 174 176 183 190 193 187 202 215 221 239 243 249 255 255 263 267 279 277
100 97 91 89 87 81 62 69 77 76 68 89 198 212 190 205 206 215 226 225 249 236 201 210 215 208 189 174 184 194 194 199 211 206 220 230 227 223 237 247 260 265 267 266
85 93 98 98 98 93 71 60 57 53 29 20 20 27 0 295 178 179 238 235 218 220 223 234 223 216 192 183 187 185 190 196 207 212 219 215 215 221 233 258 260 266 259 267
94 97 101 111 111 90 93 46 31 10 341 336 314 305 296 323 313 222 245 225 254 251 237 234 219 200 172 179 174 171 179 204 219 224 219 213 218 221 233 253 258 256 263 257
121 127 119 117 104 120 115 73 85 62 41 278 280 288 256 216 209 248 286 296 322 247 259 247 229 187 178 174 178 167 156 163 159 186 188 188 213 223 231 237 256 261 261 258
139 140 132 144 151 155 146 136 113 82 330 355 334 326 321 301 243 237 231 172 127 138 155 156 158 158 154 161 171 151 194 105 127 247 227 227 254 260 248 229 242 252 250 262
93 102 107 96 117 172 160 159 129 354 14 40 335 348 349 2 54 117 116 117 96 113 134 124 118 117 139 158 172 165 181 189 208 232 236 239 241 246 252 253 263 264 268 265